sat.trackr.live / text

‹ back to catalog

STARLINK-35560

NORAD 66059 · 2025-235B

PAYLOAD ACTIVE UNKNOWN

§ Identity

Operator
Country
US
Launch date
2025-10-19
Launch site
AFETR
Launch vehicle
Mass (kg)
RCS (m²)

Purposes: comms

External: N2YO · Heavens-Above · Gunter

§ Orbital elements

Epoch: 2026-05-24T23:47:51.075168Z

Period
94.11 min
Inclination
53.1568°
Eccentricity
0.0001035
Mean motion
15.30201374 rev/d
Perigee alt
474.5 km
Apogee alt
475.9 km
Semi-major
6,853.3 km
B*
4.9796e-4
RAAN
250.8563°
Arg perigee
75.9245°
Mean anomaly
284.1871°
Rev number
3,460

§ Raw data

STARLINK-355601 66059U 25235B   26144.99156337  .00014418  00000+0  49796-3 0  99982 66059  53.1568 250.8563 0001035  75.9245 284.1871 15.30201374 34606

JSON: /api/v1/satellites/66059 · /tle

For live sub-satellite position, see the globe view (requires WebGL).

§ Visibility from observer

Set your observer location to see the next 7 days of passes ≥ 10°. The values pass through the URL so the page stays shareable.

No JS? Fill the form by hand. The geolocation button needs JavaScript.